Regional Weather Roundup
Issued by NWS

Home | Current Version | Previous Version | Text Only | Print | Product List | Glossary Off
Versions: 1 2 3 4 5 6 7 8 9 10 11 12 13 14 15 16 17 18 19 20 21 22 23 24 25 26 27 28 29 30 31 32 33 34 35 36 37 38 39 40 41 42 43 44 45 46 47 48 49 50

000
ASUS45 KPSR 300210
RWRAZ

ARIZONA REGIONAL HOURLY WEATHER ROUNDUP
NATIONAL WEATHER SERVICE PHOENIX AZ
700 PM MST THU JAN 29 2015

NOTE: FAIR INDICATES FEW OR NO CLOUDS BELOW 12,000 FEET WITH NO
SIGNIFICANT WEATHER AND/OR OBSTRUCTIONS TO VISIBILITY.

AZZ001>003-036-300300-
NORTHWEST ARIZONA

CITY           SKY/WX    TMP DP  RH WIND       PRES   REMARKS
BULLHEAD CITY  CLOUDY    68  39  34 N9        30.01S
KINGMAN        CLOUDY    53  41  63 SE9       30.09R
$$

AZZ004>008-015-016-018-300300-
NORTH CENTRAL ARIZONA

CITY           SKY/WX    TMP DP  RH WIND       PRES   REMARKS
GRAND CANYON   LGT RAIN  44  33  65 E10       30.22R
PRESCOTT       LGT RAIN  50  42  74 CALM      30.15R
FLAGSTAFF      LGT RAIN  40  37  89 CALM      30.22S
PAYSON         LGT RAIN  48  43  81 CALM      30.20R
$$

AZZ009>014-017-300300-
NORTHEAST ARIZONA

CITY           SKY/WX    TMP DP  RH WIND       PRES   REMARKS
WINSLOW        LGT RAIN  50  39  66 N7        30.19R
SAINT JOHNS    LGT RAIN  51  41  68 SE8       30.21R
WINDOW ROCK    CLOUDY    47  29  49 SE5       30.27R
SHOW LOW       LGT RAIN  41  39  93 S5        30.24S
$$

AZZ023-300300-
GREATER PHOENIX AREA

CITY           SKY/WX    TMP DP  RH WIND       PRES   REMARKS
PHOENIX        LGT RAIN  62  57  83 E6        30.04F
BUCKEYE          N/A     61  61 100 E10       30.04R
GLENDALE       LGT RAIN  61  61 100 N3        30.06F
LUKE AFB       LGT RAIN  60  58  92 NE6       30.03F
DEER VALLEY    LGT RAIN  60  56  86 CALM      30.06S
SCOTTSDALE     LGT RAIN  61  56  83 CALM      30.08R
MESA-FALCON    CLOUDY    57  57 100 S7        30.07R
MESA-GATEWAY   CLOUDY    59  55  88 CALM      30.08S
CHANDLER       LGT RAIN  61  57  88 W8        30.06S
$$

AZZ027-028-300300-
SOUTHWEST MARICOPA COUNTY AND PINAL COUNTY

CITY           SKY/WX    TMP DP  RH WIND       PRES   REMARKS
CASA GRANDE    CLOUDY    57  54  88 CALM      30.06S
GILA BEND      LGT RAIN  62  58  90 SE2       30.01S
$$

AZZ503-504-507>509-300300-
SOUTHEAST ARIZONA

CITY           SKY/WX    TMP DP  RH WIND       PRES   REMARKS
TUCSON         CLOUDY    61  52  72 W13       30.09R
DAVIS-MONTHAN  CLOUDY    61  50  66 NW10      30.07R
RYAN FIELD       N/A     61  54  77 W8        30.09R
NOGALES        CLOUDY    58  47  66 W3        30.11R
SIERRA VISTA   CLOUDY    59  41  51 S10       30.13R
DOUGLAS        CLOUDY    60  42  51 E15G22    30.12R
SAFFORD        LGT RAIN  61  39  44 SE15      30.14R
$$

AZZ020-021-025-026-031-300300-
SOUTHWEST ARIZONA

CITY           SKY/WX    TMP DP  RH WIND       PRES   REMARKS
YUMA           CLOUDY    69  48  47 NE3       29.98R
$$

CAZ031-033-041-043-047-048-061-300300-
SOUTHERN CALIFORNIA

CITY           SKY/WX    TMP DP  RH WIND       PRES   REMARKS
DOWNTOWN L.A.  CLOUDY    66  49  54 CALM      30.00R
L.A. AIRPORT   CLOUDY    63  50  62 W9        30.01R
SAN DIEGO      CLOUDY    65  52  62 CALM      30.02R
BURBANK        CLOUDY    67  42  40 S6        30.00R
ONTARIO        LGT RAIN  67  43  41 SE7       30.01R
RIVERSIDE      LGT RAIN  66  43  43 NE3       30.02R
PALM SPRINGS   CLOUDY    69  48  47 CALM      30.00R
EL CENTRO NAS  CLOUDY    67  49  52 S3        29.97R
IMPERIAL       CLOUDY    66  50  56 CALM      29.96S
BLYTHE         CLOUDY    64  53  67 E6        29.99R
NEEDLES        CLOUDY    66  40  38 N13       29.99F
$$

NVZ020-UTZ003-300300-
SOUTHERN NEVADA-UTAH

CITY           SKY/WX    TMP DP  RH WIND       PRES   REMARKS
LAS VEGAS      CLOUDY    63  35  35 W5        30.04F
SALT LAKE CITY CLOUDY    39  35  86 W5        30.26R
$$

NMZ009-TXZ055-300300-
NEW MEXICO-WEST TEXAS

CITY           SKY/WX    TMP DP  RH WIND       PRES   REMARKS
ALBUQUERQUE    CLOUDY    45  20  36 E23G35    30.39R
EL PASO        CLOUDY    53  33  46 E16G24    30.33R
$$


........................KEY........................
SKY/WX - SKY CONDITION/WEATHER
TMP    - TEMPERATURE IN FAHRENHEIT
DP     - DEW POINT IN FAHRENHEIT
RH     - RELATIVE HUMIDITY IN PERCENT
WIND   - DIRECTION AND SPEED IN MILES PER HOUR (MPH)
VRB    - VARIABLE WIND DIRECTION
PRES   - MEAN SEA LEVEL PRESSURE IN INCHES OF MERCURY
         F - FALLING PRESSURE   R - RISING PRESSURE
         S - STEADY PRESSURE
VSB    - VISIBILITY IN MILES
HX     - HEAT INDEX IN FAHRENHEIT
WCI    - WIND CHILL INDEX IN FAHRENHEIT
TC     - TEMPERATURE IN CELSIUS WHICH IS ALSO KNOWN AS
         TEMPERATURE IN CENTIGRADE
AFB    - AIR FORCE BASE
         LUKE AFB IS LUKE AIR FORCE BASE
         DAVIS-MONTHAN IS DAVIS-MONTHAN AIR FORCE BASE
NAS    - NAVAL AIR STATION
         EL CENTRO NAS IS EL CENTRO NAVAL AIR STATION
N/A    - NOT AVAILABLE



USA.gov is the U.S. government's official web portal to all federal, state and local government web resources and services.